Location: Banff
(51.1667°N, 115.5667°W)
Time: 20:24:36
(UTC+00:00)

S-56A Canister/Altair - Visible Passes

Search period start: 04 August 2021 00:00
Search period end: 14 August 2021 00:00
Orbit: 631 x 2501 km, 38.9° (Epoch: 04 August)

Date Brightness Start Highest point End Pass type
(mag) Time Alt. Az. Time Alt. Az. Time Alt. Az.
04 Aug 11.0 04:07:23 10° W 04:17:34 23° SW 04:26:38 10° S visible
07 Aug 11.6 04:37:51 10° WSW 04:41:10 11° SW 04:44:24 10° SW visible
08 Aug 11.5 04:02:13 10° WSW 04:08:16 14° SW 04:14:05 10° SSW visible
